Location: Springfield
(37.2150°N, 93.2980°W)
Time: 01:47:13
(UTC-06:00)

Daily predictions for brighter satellites

Satellite Brightness Start Highest point End
(mag) Time Altitude Azimuth Time Altitude Azimuth Time Altitude Azimuth
Cosmos 2082 Rocket 4.0 04:00:21 24° SE 04:01:54 27° ESE 04:06:38 10° NE
Cosmos 1833 Rocket 3.9 04:16:11 36° ESE 04:16:53 38° ESE 04:22:02 10° NE
USA 267 4.4 04:30:36 10° NNE 04:34:15 28° N 04:34:15 28° N
Okean 2 Rocket 4.1 04:41:20 10° SSE 04:45:36 45° E 04:49:55 10° NNE
Cosmos 1980 Rocket 4.3 04:41:42 12° N 04:45:41 22° NE 04:50:02 10° ESE
SJ 16-02 2.9 04:45:52 29° NE 04:46:43 32° ENE 04:50:41 10° SE
Cosmos 292 Rocket 4.3 04:48:56 53° SE 04:49:27 57° ESE 04:54:07 10° NNE
Okean-O 4.3 04:46:44 10° NNE 04:50:45 33° E 04:54:44 10° SSE
SL-24 R/B - RUBIN 2 4.4 04:51:42 45° ENE 04:51:42 45° ENE 04:55:38 10° SE
Lacrosse 5 rocket 2.8 05:05:24 32° NNE 05:06:15 35° NE 05:10:25 10° ESE
BREEZE-M DEB (TANK) 4.1 05:07:11 34° NNE 05:07:12 34° NNE 05:11:29 10° E
COSMO-SKYMED 1 3.6 05:03:20 10° SE 05:07:26 43° ENE 05:10:14 19° N
Cosmos 1125 Rocket 3.7 05:05:45 38° N 05:07:43 70° ENE 05:12:53 10° SSE
USA 234 3.2 05:03:02 10° SE 05:09:36 84° NE 05:12:20 39° NW
SeaSat 1 4.5 05:09:16 10° N 05:10:14 15° N 05:10:14 15° N
Cosmos 2369 3.6 05:15:30 51° NW 05:16:51 68° WSW 05:22:30 10° S
Tiangong 2 2.9 05:18:23 28° SSE 05:18:23 28° SSE 05:20:11 10° SE
USA 116 4.1 05:12:52 10° S 05:18:00 77° WSW 05:19:22 47° NNW
Cosmos 2278 3.6 05:18:03 46° NW 05:19:41 69° WSW 05:25:20 10° S
CZ-2C R/B 3.5 05:17:09 10° S 05:21:32 66° W 05:21:41 65° W
EO 1 Del DPAF 3.8 05:20:32 10° SSE 05:24:17 57° ENE 05:26:23 24° N
Cosmos 1241 Rocket 4.4 05:22:45 41° NW 05:24:47 61° WSW 05:30:52 10° SSE
Cosmos 1656 3.5 05:25:40 42° NW 05:27:24 64° WSW 05:32:44 10° S
Cosmos 1634 Rocket 4.2 05:25:33 34° NW 05:27:38 46° W 05:33:35 10° SSW
Cosmos 1437 Rocket 3.7 05:29:33 10° S 05:33:25 48° E 05:37:13 10° NNE
Cosmos 44 Rocket 3.2 05:33:43 42° WSW 05:34:52 53° WNW 05:39:29 10° NNE
GEOS 3 Rocket 3.8 05:29:52 10° NE 05:35:17 76° ESE 05:40:36 10° SSW
SKYMED 3 4.4 05:33:07 10° S 05:37:27 83° WSW 05:40:40 18° NNW
Cosmos 540 Rocket 4.3 05:39:15 29° NW 05:39:15 29° NW 05:42:46 10° N
NOSS 3-4 (A) 4.3 05:39:38 29° WNW 05:42:42 41° WSW 05:49:44 10° S
NOSS 3-4 (C) 4.3 05:39:41 28° WNW 05:42:48 42° WSW 05:49:51 10° S
Cosmos 2082 Rocket 2.6 05:42:31 21° WSW 05:45:45 38° WNW 05:51:03 10° N
Nadezhda 4 Rocket 4.0 05:39:37 10° S 05:45:47 84° E 05:51:56 10° N
Meteor 2-20 4.3 05:40:45 10° SSW 05:46:51 74° W 05:52:56 10° N
Timation 2 Rocket 4.4 05:42:14 10° SSW 05:49:02 74° ESE 05:55:55 10° NNE
Cosmos 372 Rocket 4.2 05:47:43 25° NW 05:50:18 47° WSW 05:55:08 10° S
Cosmos 1697 Rocket 2.7 05:47:34 19° NNW 05:51:31 60° WSW 05:57:00 10° S
ORS 1 (USA 231) 4.0 05:52:39 64° W 05:52:58 81° SSW 05:55:42 10° ESE
CZ-2C R/B 2.3 05:50:22 10° NNE 05:55:18 88° W 06:00:01 10° SSW
SKYMED 2 3.7 05:51:15 10° S 05:55:27 50° W 05:58:51 15° NNW
OAO 2 Rocket 3.7 05:52:27 24° W 05:55:27 58° SSW 06:00:32 10° ESE
Cosmos 1833 Rocket 3.5 05:58:07 19° W 06:00:52 27° WNW 06:05:37 10° N
CZ-4C R/B 2.3 05:58:16 10° SSW 06:03:17 73° ESE 06:09:00 10° NE
Cosmos 1536 2.9 05:59:57 10° SSW 06:03:54 52° W 06:07:53 10° N
Cosmos 1500 4.5 06:02:09 10° SSE 06:05:50 44° E 06:09:31 10° NNE
SMAP 4.2 06:09:20 10° NNE 06:13:50 47° E 06:18:18 10° S
Cosmos 2151 Rocket 4.2 06:10:55 10° SW 06:14:51 32° WNW 06:18:50 10° NNW
Meteor 1-11 Rocket 4.3 06:13:26 10° SW 06:18:56 38° WNW 06:24:24 10° N
IDEFIX/ARIANE 42P 3.0 06:15:12 10° N 06:19:59 38° WNW 06:24:45 10° SW
Cosmos 1092 Rocket 3.9 06:15:44 10° SSW 06:21:50 72° W 06:27:59 10° N
SJ 16-02 2.7 06:22:56 14° WNW 06:25:03 20° W 06:28:13 10° SW
Okean-O 3.8 06:23:44 10° NNW 06:26:59 20° WNW 06:30:14 10° WSW
Cosmos 2360 Rocket 4.4 06:23:37 10° N 06:27:52 21° NE 06:32:06 10° ESE
deb Kosmos-1763 4.4 06:24:27 10° S 06:28:11 74° ESE 06:31:56 10° NNE
Cosmos 1980 Rocket 2.5 06:24:27 10° NNW 06:29:56 50° WSW 06:35:22 10° S
RESURS DK-1 2.5 06:29:40 10° NNW 06:33:42 53° WSW 06:37:43 10° S
SAR-Lupe-3 4.5 06:30:38 10° S 06:34:12 79° WSW 06:37:47 10° NNW
Meteor 2-4 Rocket 4.4 06:31:42 10° NNW 06:36:27 32° W 06:41:17 10° SSW
Cosmos 1300 Rocket 4.3 06:32:59 10° SW 06:36:45 30° WNW 06:40:35 10° NNW
CZ-4 R/B 2.0 06:32:41 10° NNE 06:36:50 66° ESE 06:41:00 10° S
SJ-12 4.4 06:33:19 10° N 06:37:05 38° WNW 06:40:50 10° SW
IRAS Rocket 4.4 06:32:28 10° NNE 06:38:01 84° ESE 06:43:35 10° SSW
AQUARIUS 4.2 06:34:00 10° NNE 06:38:31 89° ESE 06:43:01 10° SSW
Ariane Rocket 3.1 06:35:33 10° NNE 06:40:38 88° ESE 06:45:42 10° SSW
Cosmos 2026 Rocket 4.0 06:35:28 10° S 06:41:40 83° W 06:48:01 10° N
Meteor 1-4 Rocket 2.8 06:38:28 10° SSW 06:42:07 50° W 06:45:50 10° N
SJ-7 4.4 06:38:19 10° N 06:42:18 60° WNW 06:46:18 10° SSW
Cosmos 1515 3.8 06:38:53 10° NNW 06:42:37 53° W 06:46:20 10° S
COSMO-SKYMED 1 4.3 06:41:26 10° SW 06:43:46 14° W 06:46:07 10° WNW
Lacrosse 5 rocket 2.6 06:41:24 10° WNW 06:45:26 31° WSW 06:49:21 10° S
Cosmos 192 4.5 06:45:32 10° SW 06:50:17 51° WNW 06:55:04 10° N
